カタログに戻る

CZ-4C SEP MOTOR COVER

運用中SSO
NORAD 49047·DEBRIS·🇨🇳 China
この衛星名は、まだ公式ソースで確認されていません。

打ち上げ Jul 4, 2021 から Jiuquan Satellite Launch Center

Loading…

次のパス (今後24時間)

TLE

最新Source: Space-Track

元期: Sep 14, 2026, 06:45 UTC

1 49047U 21062E   26257.28125064  .00000047  00000-0  36980-4 0  9996
2 49047  98.6611 275.9567 0004990 152.0717 208.0733 14.27882675268518

AllMySatでCZ-4C SEP MOTOR COVERをリアルタイム追跡

Download on the App Store